[[{"header":{"parameterUnit":"m.s-1","parameterCategory":2,"la1":30.2991,"la2":30.254,"lo1":-89.0895,"lo2":-89.0444,"dy":0.0017,"dx":0.0017,"nx":28,"ny":28,"refTime":"2025-07-27T21:00:00:Z","depth":"0","parameterNumber":2,"parameterNumberName":"U-component_of_CURRENTS"},"data":[0,0,0,0,0,0,0,0,0,0,0,0,0,0,0,0,0,0,0,0,0,0,0,0,0,0,0,0,0,0,0,0,0,0,0,0,0,0,0,0,0,0,0,0,0,0,0,0,0,0,0,0,0,0,0,0,0,0,0.3463,0.3464,0,0.3537,0.3538,0.3538,0.3562,0.3562,0.3561,0.3561,0.3644,0.3647,0.3649,0,0,0,0,0,0,0,0,0,0,0,0,0,0.3418,0.3418,0.3463,0.3464,0.3465,0.3537,0.3538,0.3539,0.3562,0.3562,0.3561,0.3561,0.3643,0.3646,0.3649,0,0,0,0,0,0,0,0,0,0,0,0,0,0.346,0.3418,0.3463,0.3485,0.3487,0.3536,0.3538,0.3539,0.3562,0.3562,0.3561,0.356,0.3642,0.3646,0.365,0.3686,0,0,0.3662,0.3664,0,0,0,0,0,0,0,0,0.3457,0.3461,0.3481,0.3483,0.3486,0.3539,0.3552,0.3589,0.3562,0.3535,0.3561,0.356,0.361,0.3616,0.3633,0.369,0.3694,0.3662,0.3665,0.3666,0.3667,0,0,0,0,0,0,0,0.3454,0.3459,0.3493,0.3482,0.3485,0.3516,0.3521,0.356,0.3576,0.3537,0.3539,0.3546,0.3611,0.3629,0.3635,0.3695,0.3662,0.3666,0.3668,0.3669,0.3773,0.3774,0,0,0,0,0,0,0.344,0.3456,0.3491,0.3495,0.3469,0.3517,0.3522,0.3523,0.3575,0.3582,0.3546,0.3547,0.3622,0.363,0.3638,0.3665,0.3666,0.367,0.3672,0.3773,0.3773,0.3774,0,0,0,0,0,0,0.3439,0.3442,0.3488,0.3477,0.3485,0.3518,0.3519,0.3525,0.3533,0.3582,0.3589,0.3546,0.3622,0.3632,0.3667,0.3669,0.3672,0.3675,0.3772,0.3773,0.3774,0.3731,0,0,0,0,0,0,0.3437,0.3441,0.3437,0.3476,0.3485,0.3496,0.352,0.3527,0.3538,0.3539,0.3585,0.3592,0.3622,0.3661,0.367,0.3674,0.3678,0.3772,0.3773,0.3773,0.3732,0.373,0.3728,0,0,0,0,0,0.3435,0.3427,0.3436,0.3441,0.3478,0.3495,0.3502,0.3525,0.3538,0.3532,0.3573,0.359,0.3672,0.3664,0.3676,0.368,0.3772,0.3773,0.3773,0.3733,0.373,0.3729,0,0,0,0,0,0,0.3393,0.343,0.3441,0.3441,0.3457,0.3498,0.3501,0.3519,0.3549,0.3554,0.3599,0.361,0.3643,0.3669,0.3658,0.3713,0.3724,0.3727,0.3689,0.3687,0.3686,0.3694,0.3681,0,0,0,0,0,0.3385,0.3394,0.3424,0.3421,0.343,0.3466,0.3477,0.3493,0.3525,0.3537,0.3569,0.3613,0.366,0.3676,0.3717,0.3745,0.3779,0.3756,0.3754,0.3752,0.3768,0.3829,0.3834,0.3777,0.3777,0.3777,0,0,0.3364,0.3389,0.3391,0.3414,0.3435,0.3451,0.347,0.3482,0.35,0.3544,0.3573,0.361,0.3668,0.3703,0.3719,0.372,0.3779,0.3753,0.3751,0.3769,0.3831,0.3836,0.3841,0.3778,0.3778,0.3777,0,0,0.3337,0.3352,0.3355,0.3374,0.3403,0.3429,0.3427,0.3462,0.3479,0.3514,0.3556,0.3593,0.3651,0.3693,0.3725,0.3741,0.3773,0.3746,0.374,0.3799,0.3804,0.3809,0.3827,0.3834,0.3739,0.3739,0.3739,0,0.3304,0.3317,0.3353,0.3367,0.3377,0.3417,0.3416,0.3453,0.3492,0.3509,0.3515,0.362,0.3654,0.3721,0.3724,0.3738,0.3765,0.3739,0.3796,0.3803,0.3809,0.3826,0.3835,0.3737,0.3737,0.3737,0.3737,0,0.3286,0.3299,0.33,0.3336,0.3354,0.3353,0.3406,0.3424,0.3452,0.3491,0.3548,0.3607,0.3667,0.368,0.3711,0.377,0.377,0.3789,0.3798,0.3812,0.3829,0.3838,0.3734,0.3735,0.3735,0.3736,0,0,0.3176,0.3267,0.326,0.3273,0.3331,0.3333,0.3378,0.3415,0.3439,0.3495,0.3534,0.3617,0.3648,0.3689,0.3728,0.3778,0.3826,0.3797,0.3801,0.3809,0.3931,0.3751,0.3745,0.3857,0.3859,0.3861,0.3913,0,0.3132,0.3155,0.3213,0.3217,0.3226,0.3286,0.3322,0.3372,0.3424,0.3476,0.3561,0.3615,0.3655,0.3676,0.3741,0.3812,0.3856,0.3809,0.3923,0.3926,0.3761,0.3752,0.3569,0.3585,0.3922,0.3924,0.3925,0,0.3078,0.3099,0.3106,0.3161,0.3166,0.3182,0.3226,0.3264,0.3371,0.3418,0.3507,0.358,0.3675,0.3702,0.3845,0.3813,0.3873,0.3925,0.3929,0.379,0.3765,0.3634,0.359,0.3495,0.3941,0.3939,0.3938,0,0.2976,0.3015,0.3015,0.3031,0.3106,0.3111,0.3141,0.3233,0.3267,0.3381,0.3422,0.3559,0.3608,0.3737,0.3833,0.3852,0.3971,0.401,0.3907,0.3895,0.3775,0.3747,0.365,0.4115,0.4115,0.4115,0.4115,0,0.2912,0.2908,0.2963,0.2962,0.2947,0.3022,0.303,0.3095,0.319,0.3234,0.3378,0.3433,0.3622,0.3712,0.3826,0.3864,0.3965,0.3902,0.3898,0.3747,0.3717,0.3658,0.365,0.4117,0.4117,0.4116,0.4116,0,0.2848,0.2881,0.2876,0.2911,0.2912,0.2903,0.2958,0.2984,0.3072,0.314,0.3174,0.3336,0.3437,0.3592,0.3764,0.3799,0.3766,0.388,0.3656,0.3622,0.3405,0.3402,0.3235,0.3152,0.3782,0.3778,0.3774,0,0.2838,0.2828,0.2822,0.2812,0.2831,0.2827,0.2843,0.2919,0.2956,0.3071,0.3103,0.3205,0.3275,0.342,0.3497,0.3611,0.3599,0.3487,0.3487,0.3343,0.3342,0.3265,0.3205,0.3321,0.3314,0.3308,0.3304,0,0.2809,0.2799,0.2796,0.2768,0.2758,0.2749,0.2769,0.2778,0.287,0.2912,0.2974,0.3024,0.3115,0.3112,0.3193,0.3265,0.3273,0.3368,0.331,0.3027,0.2854,0.2786,0.3321,0.3253,0.3258,0.3262,0.3265,0.3267,0.2778,0.2763,0.2748,0.2717,0.2712,0.2689,0.2645,0.2681,0.2691,0.2714,0.2804,0.2789,0.2809,0.2883,0.2922,0.2816,0.2907,0.2775,0.2803,0.2753,0.2587,0.2958,0.2819,0.2822,0.2824,0.2826,0.2827,0,0.2723,0.272,0.2705,0.2657,0.2628,0.2634,0.261,0.2547,0.2513,0.2532,0.2536,0.2458,0.2404,0.2444,0.2383,0.2292,0.2264,0.2238,0.2143,0.2135,0.2546,0.2436,0.2094,0.2094,0.2094,0.2094,0.2094,0.2095,0.2695,0.2656,0.2644,0.2574,0.2547,0.243,0.2383,0.2316,0.2281,0.2163,0.2071,0.2061,0.2102,0.2059,0.1945,0.1915,0.1836,0.1688,0.1767,0.2107,0.2161,0.2213,0.2106,0.17,0.1699,0.125,0.1247,0.1244]},{"header":{"parameterUnit":"m.s-1","parameterCategory":2,"la1":30.2991,"la2":30.254,"lo1":-89.0895,"lo2":-89.0444,"dy":0.0017,"dx":0.0017,"nx":28,"ny":28,"refTime":"2025-07-27T21:00:00:Z","depth":"0","parameterNumber":3,"parameterNumberName":"V-component_of_CURRENTS"},"data":[0,0,0,0,0,0,0,0,0,0,0,0,0,0,0,0,0,0,0,0,0,0,0,0,0,0,0,0,0,0,0,0,0,0,0,0,0,0,0,0,0,0,0,0,0,0,0,0,0,0,0,0,0,0,0,0,0,0,0.0144,0.0144,0,0.015,0.015,0.015,0.0122,0.0121,0.0121,0.012,0.0076,0.0075,0.0075,0,0,0,0,0,0,0,0,0,0,0,0,0,0.0082,0.0084,0.0144,0.0144,0.0145,0.015,0.015,0.015,0.0122,0.0121,0.0121,0.012,0.0076,0.0075,0.0075,0,0,0,0,0,0,0,0,0,0,0,0,0,0.0099,0.0084,0.0144,0.0133,0.0132,0.015,0.015,0.015,0.0122,0.0121,0.012,0.012,0.0076,0.0075,0.0075,0.0088,0,0,0.0072,0.0071,0,0,0,0,0,0,0,0,0.0098,0.0101,0.0134,0.0134,0.0133,0.0136,0.0112,0.0127,0.0123,0.0124,0.012,0.0119,0.0093,0.0091,0.0092,0.0086,0.0084,0.0072,0.0071,0.0071,0.0071,0,0,0,0,0,0,0,0.0097,0.0101,0.0145,0.0135,0.0134,0.0119,0.012,0.0115,0.0112,0.0124,0.0122,0.0126,0.0092,0.0093,0.0091,0.0084,0.0072,0.0071,0.007,0.007,0.0071,0.0072,0,0,0,0,0,0,0.0103,0.01,0.0144,0.0145,0.0115,0.0121,0.0122,0.0134,0.0113,0.0109,0.0127,0.0125,0.0095,0.0092,0.0089,0.011,0.0071,0.007,0.0069,0.0071,0.0071,0.0072,0,0,0,0,0,0,0.0102,0.0107,0.0144,0.0123,0.0127,0.0123,0.0137,0.0135,0.0133,0.0116,0.0111,0.0126,0.0094,0.009,0.0093,0.0108,0.007,0.0069,0.007,0.0071,0.0072,0.0148,0,0,0,0,0,0,0.01,0.0107,0.0117,0.0124,0.0129,0.0164,0.0138,0.0136,0.0138,0.0135,0.0114,0.0109,0.0093,0.0095,0.0092,0.0106,0.0068,0.0069,0.007,0.0071,0.0144,0.0151,0.0156,0,0,0,0,0,0.0098,0.0121,0.0117,0.0123,0.0143,0.0165,0.0166,0.0158,0.0139,0.0149,0.0134,0.0109,0.0099,0.0095,0.0092,0.0105,0.0069,0.007,0.0071,0.0142,0.015,0.0156,0,0,0,0,0,0,0.0108,0.0121,0.0117,0.0144,0.0156,0.0161,0.0169,0.0161,0.0158,0.0151,0.0125,0.012,0.0125,0.0105,0.0101,0.0107,0.0076,0.0077,0.0131,0.0138,0.0144,0.0151,0.0067,0,0,0,0,0,0.0114,0.0128,0.0141,0.0164,0.017,0.0168,0.0173,0.0171,0.017,0.0167,0.0153,0.0135,0.013,0.0126,0.0116,0.0126,0.011,0.0128,0.0135,0.014,0.0143,0.0147,0.0154,0.0076,0.0076,0.0076,0,0,0.0125,0.0133,0.0142,0.0165,0.0169,0.0193,0.0168,0.0185,0.0202,0.0163,0.0176,0.0158,0.0136,0.0148,0.0147,0.0132,0.0153,0.0142,0.0147,0.0146,0.0149,0.0157,0.0164,0.0077,0.0077,0.0077,0,0,0.0157,0.0161,0.0183,0.0193,0.0207,0.0211,0.0217,0.0224,0.0225,0.0241,0.0213,0.0209,0.0199,0.0192,0.0185,0.0219,0.0185,0.0206,0.0246,0.025,0.0257,0.0263,0.0253,0.0258,0.021,0.021,0.021,0,0.0173,0.0201,0.0194,0.0217,0.0231,0.0222,0.0252,0.0258,0.0266,0.0271,0.0253,0.0245,0.0223,0.0241,0.0246,0.0234,0.0223,0.0223,0.026,0.0265,0.027,0.0259,0.0262,0.0214,0.0213,0.0213,0.0213,0,0.0219,0.024,0.0255,0.0279,0.0292,0.0319,0.0327,0.0337,0.0331,0.0334,0.0347,0.0327,0.0322,0.0312,0.0287,0.0308,0.0285,0.0269,0.0246,0.0283,0.0268,0.0271,0.0219,0.0218,0.0217,0.0216,0,0,0.0279,0.0287,0.0295,0.0311,0.0327,0.035,0.0373,0.0401,0.0423,0.0419,0.0453,0.043,0.0412,0.0402,0.0375,0.0372,0.0389,0.0333,0.0332,0.0332,0.039,0.0357,0.0356,0.0381,0.0382,0.0383,0.0367,0,0.0326,0.037,0.0362,0.0414,0.0443,0.0432,0.0456,0.0472,0.0482,0.0512,0.0493,0.0513,0.0451,0.0457,0.0444,0.0411,0.0399,0.0394,0.0347,0.0345,0.0318,0.0359,0.0348,0.0332,0.0369,0.037,0.037,0,0.0391,0.0409,0.0456,0.048,0.0491,0.0514,0.0551,0.0574,0.0598,0.0605,0.0613,0.0602,0.0602,0.055,0.0506,0.0506,0.0448,0.0413,0.0412,0.0356,0.0318,0.03,0.0334,0.0254,0.0373,0.0373,0.0373,0,0.0448,0.0485,0.0521,0.0531,0.0552,0.0566,0.058,0.06,0.0639,0.0673,0.0713,0.0694,0.0708,0.0645,0.0563,0.0539,0.0516,0.0477,0.039,0.0386,0.0354,0.0346,0.0312,0.0441,0.0441,0.0441,0.0441,0,0.0513,0.0546,0.0548,0.057,0.0621,0.0613,0.0674,0.0681,0.0726,0.0794,0.0766,0.082,0.0732,0.071,0.0611,0.0518,0.0553,0.0404,0.0387,0.0378,0.0374,0.0282,0.0239,0.044,0.0441,0.0441,0.0441,0,0.0565,0.0569,0.0617,0.0637,0.0648,0.0684,0.0736,0.0786,0.081,0.0906,0.0928,0.0929,0.0891,0.0796,0.0702,0.0589,0.045,0.045,0.0439,0.042,0.0243,0.0206,0.0153,0.0117,0.035,0.0349,0.0349,0,0.0585,0.0614,0.0662,0.0694,0.0701,0.0753,0.0794,0.0829,0.0895,0.0979,0.1038,0.103,0.1041,0.0888,0.0692,0.0526,0.044,0.0389,0.0332,0.0242,0.0187,0.0167,0.0139,0.0318,0.0317,0.0316,0.0316,0,0.0617,0.0636,0.0666,0.0736,0.0788,0.0862,0.0925,0.0996,0.1059,0.1143,0.123,0.1245,0.1087,0.0917,0.0671,0.054,0.0337,0.0367,0.0288,0.0172,0.0136,0.0091,0.031,0.0309,0.031,0.031,0.0311,0.0311,0.0626,0.0656,0.0699,0.077,0.0843,0.0948,0.1019,0.1112,0.123,0.1353,0.1359,0.1392,0.1133,0.0793,0.0601,0.0256,0.0275,0.0151,0.0116,0.0107,0.0063,0.0258,0.0228,0.0228,0.0228,0.0228,0.0228,0,0.0626,0.0665,0.0728,0.0819,0.0911,0.095,0.1089,0.1175,0.1322,0.1432,0.1505,0.1395,0.1083,0.0753,0.0293,0.0061,-0.0021,-0.005,-0.0078,-0.0092,0.0093,0.0081,0.0,0.0001,0.0001,0.0001,0.0001,0.0001,0.0622,0.0674,0.0713,0.0849,0.0926,0.1053,0.114,0.1275,0.1377,0.1509,0.1531,0.1526,0.1278,0.0515,0.001,-0.0107,-0.0235,-0.028,-0.0326,-0.0206,-0.0189,-0.0174,-0.0195,-0.0332,-0.0332,-0.0491,-0.0493,-0.0494]}],[{"header":{"parameterUnit":"m.s-1","parameterCategory":2,"la1":30.2991,"la2":30.254,"lo1":-89.0895,"lo2":-89.0444,"dy":0.0017,"dx":0.0017,"nx":28,"ny":28,"refTime":"2025-07-27T21:00:00:Z","depth":"2","parameterNumber":2,"parameterNumberName":"U-component_of_CURRENTS"},"data":[0,0,0,0,0,0,0,0,0,0,0,0,0,0,0,0,0,0,0,0,0,0,0,0,0,0,0,0,0,0,0,0,0,0,0,0,0,0,0,0,0,0,0,0,0,0,0,0,0,0,0,0,0,0,0,0,0,0,0.2282,0.2285,0,0.2397,0.2397,0.2397,0.2412,0.2412,0.2413,0.2413,0.242,0.242,0.242,0,0,0,0,0,0,0,0,0,0,0,0,0,0.2169,0.2169,0.2282,0.2285,0.2288,0.2397,0.2397,0.2397,0.2412,0.2412,0.2413,0.2413,0.242,0.242,0.242,0,0,0,0,0,0,0,0,0,0,0,0,0,0.2229,0.2169,0.2282,0.232,0.2326,0.2397,0.2397,0.2397,0.2412,0.2412,0.2413,0.2413,0.242,0.242,0.242,0.2409,0,0,0.242,0.2419,0,0,0,0,0,0,0,0,0.2225,0.2231,0.2312,0.2318,0.2324,0.2404,0.2361,0.2401,0.2412,0.2363,0.2413,0.2414,0.2415,0.2415,0.2415,0.2409,0.2409,0.2419,0.2419,0.2419,0.2419,0,0,0,0,0,0,0,0.2221,0.2227,0.2312,0.2315,0.2323,0.2365,0.2371,0.2368,0.237,0.2367,0.2372,0.241,0.2415,0.2415,0.2415,0.2409,0.2419,0.2419,0.2419,0.2419,0.2511,0.2513,0,0,0,0,0,0,0.2233,0.2222,0.2308,0.2317,0.2293,0.2367,0.2373,0.2365,0.2373,0.238,0.2409,0.241,0.2415,0.2415,0.2415,0.2499,0.2419,0.2419,0.2419,0.2508,0.2511,0.2514,0,0,0,0,0,0,0.2229,0.2237,0.2304,0.2288,0.2301,0.2369,0.236,0.2368,0.2413,0.2409,0.2411,0.2453,0.2415,0.2416,0.2441,0.2496,0.2419,0.2419,0.2505,0.2509,0.2513,0.2604,0,0,0,0,0,0,0.2224,0.2234,0.2258,0.2287,0.2303,0.2381,0.2361,0.237,0.244,0.2443,0.2447,0.2445,0.2416,0.2441,0.244,0.2494,0.2419,0.2502,0.2507,0.2511,0.2597,0.261,0.2621,0,0,0,0,0,0.2219,0.2243,0.2257,0.2271,0.2323,0.2385,0.2396,0.2436,0.2442,0.2473,0.2466,0.2447,0.2472,0.2442,0.2441,0.2496,0.25,0.2505,0.2511,0.2592,0.2608,0.2621,0,0,0,0,0,0,0.224,0.225,0.2264,0.2301,0.2361,0.2394,0.2437,0.2465,0.2485,0.2491,0.2465,0.2463,0.2509,0.2493,0.2461,0.254,0.249,0.2495,0.2552,0.2566,0.2578,0.2572,0.2419,0,0,0,0,0,0.2251,0.2247,0.2297,0.2336,0.2359,0.2404,0.2446,0.2479,0.25,0.2512,0.2508,0.2513,0.2525,0.2538,0.2538,0.2575,0.2563,0.2616,0.2628,0.2638,0.2635,0.2712,0.2731,0.2533,0.2533,0.2533,0,0,0.2278,0.2286,0.2292,0.234,0.2372,0.2418,0.2426,0.2501,0.2538,0.2507,0.254,0.2551,0.2544,0.2582,0.2603,0.258,0.2678,0.2645,0.2653,0.2645,0.272,0.2739,0.2756,0.2537,0.2536,0.2535,0,0,0.2323,0.2326,0.2341,0.2383,0.2458,0.2471,0.2505,0.2556,0.2575,0.2625,0.261,0.2652,0.2668,0.2672,0.2676,0.2756,0.2736,0.2778,0.2835,0.2911,0.2928,0.2942,0.2904,0.2914,0.2788,0.2788,0.2788,0,0.2358,0.2366,0.2374,0.2414,0.2443,0.2495,0.2536,0.2571,0.263,0.2645,0.2652,0.2708,0.2707,0.2754,0.2785,0.2783,0.2792,0.2778,0.2926,0.2941,0.2954,0.2912,0.2922,0.2793,0.2793,0.2792,0.2792,0,0.2405,0.2434,0.2451,0.2476,0.2523,0.2564,0.2612,0.2655,0.2684,0.2722,0.279,0.2802,0.2841,0.2863,0.2846,0.2948,0.2908,0.293,0.2887,0.298,0.2928,0.2937,0.28,0.2799,0.2797,0.2796,0,0,0.2347,0.2454,0.2449,0.2473,0.2542,0.2569,0.2633,0.2681,0.2713,0.28,0.2847,0.2907,0.2946,0.2955,0.2967,0.3032,0.3118,0.3034,0.3036,0.2986,0.3224,0.3004,0.2992,0.3193,0.3197,0.32,0.3131,0,0.2354,0.242,0.247,0.2523,0.2541,0.2601,0.2637,0.271,0.2759,0.2819,0.2894,0.295,0.2975,0.301,0.3092,0.3112,0.3157,0.3129,0.3148,0.3145,0.2936,0.3002,0.2817,0.2726,0.3139,0.3141,0.3142,0,0.2313,0.2365,0.242,0.2495,0.2506,0.2554,0.2587,0.265,0.2761,0.2813,0.2927,0.2991,0.3095,0.3114,0.322,0.3213,0.3231,0.3242,0.3241,0.3011,0.2946,0.2713,0.2727,0.3157,0.3156,0.3155,0.3154,0,0.2174,0.2286,0.2311,0.2343,0.2464,0.2491,0.2546,0.2642,0.2669,0.283,0.2862,0.3029,0.3064,0.3194,0.3218,0.3257,0.3291,0.3343,0.3143,0.3123,0.2949,0.2907,0.3425,0.3425,0.3426,0.3426,0.3426,0,0.2084,0.2112,0.2255,0.2273,0.2295,0.2413,0.2445,0.2529,0.2637,0.2671,0.2858,0.2892,0.31,0.3142,0.3223,0.3165,0.3299,0.3139,0.3112,0.2965,0.2928,0.3301,0.3288,0.3423,0.3424,0.3424,0.3425,0,0.1954,0.2038,0.2082,0.2207,0.2232,0.2258,0.2367,0.2404,0.2511,0.2563,0.2619,0.2778,0.2838,0.2945,0.3074,0.3075,0.3106,0.3046,0.2787,0.2731,0.2885,0.2878,0.2856,0.2848,0.2842,0.2836,0.2831,0,0.1942,0.1925,0.2009,0.2034,0.2103,0.2163,0.2199,0.2324,0.2363,0.247,0.2478,0.2551,0.2594,0.2633,0.2677,0.2711,0.2862,0.2518,0.2568,0.2861,0.2838,0.2841,0.2842,0.236,0.2352,0.2345,0.234,0,0.1893,0.188,0.1926,0.1944,0.198,0.2026,0.2094,0.2085,0.2219,0.2239,0.2277,0.2323,0.2323,0.2282,0.2263,0.2288,0.2516,0.2374,0.2803,0.251,0.2383,0.2363,0.2384,0.228,0.2286,0.2291,0.2294,0.2296,0.1874,0.185,0.1854,0.1879,0.1916,0.1921,0.1901,0.1954,0.1958,0.1972,0.2058,0.2036,0.2062,0.1948,0.1904,0.1877,0.2066,0.2055,0.2082,0.2115,0.2047,0.1914,0.1705,0.1707,0.1709,0.1711,0.1713,0,0.182,0.1804,0.1804,0.1815,0.1812,0.1855,0.1851,0.1801,0.1758,0.178,0.1784,0.1629,0.1569,0.1597,0.1464,0.1456,0.1532,0.1412,0.1534,0.159,0.1642,0.1559,0.1082,0.108,0.1078,0.1077,0,0,0.1806,0.1771,0.1739,0.1714,0.1731,0.1663,0.1633,0.1554,0.1526,0.1448,0.1409,0.1503,0.1544,0.1298,0.1261,0.1151,0.1375,0.1107,0.1612,0.1811,0.1861,0.2001,0.1931,0,0,0,0,0]},{"header":{"parameterUnit":"m.s-1","parameterCategory":2,"la1":30.2991,"la2":30.254,"lo1":-89.0895,"lo2":-89.0444,"dy":0.0017,"dx":0.0017,"nx":28,"ny":28,"refTime":"2025-07-27T21:00:00:Z","depth":"2","parameterNumber":3,"parameterNumberName":"V-component_of_CURRENTS"},"data":[0,0,0,0,0,0,0,0,0,0,0,0,0,0,0,0,0,0,0,0,0,0,0,0,0,0,0,0,0,0,0,0,0,0,0,0,0,0,0,0,0,0,0,0,0,0,0,0,0,0,0,0,0,0,0,0,0,0,0.0388,0.0387,0,0.034,0.034,0.0339,0.0304,0.0303,0.0303,0.0302,0.0213,0.0211,0.021,0,0,0,0,0,0,0,0,0,0,0,0,0,0.0405,0.0406,0.0388,0.0387,0.0386,0.034,0.034,0.0339,0.0304,0.0303,0.0302,0.0302,0.0214,0.0212,0.0209,0,0,0,0,0,0,0,0,0,0,0,0,0,0.0385,0.0406,0.0388,0.0361,0.0357,0.034,0.034,0.0339,0.0304,0.0303,0.0302,0.0301,0.0214,0.0212,0.0209,0.0211,0,0,0.0201,0.02,0,0,0,0,0,0,0,0,0.0386,0.0385,0.0366,0.0362,0.0359,0.0324,0.0313,0.0293,0.0304,0.0328,0.0302,0.0301,0.0245,0.024,0.0238,0.0207,0.0203,0.0201,0.0199,0.0198,0.0197,0,0,0,0,0,0,0,0.0388,0.0386,0.0372,0.0365,0.036,0.0335,0.0332,0.0309,0.0294,0.0326,0.0322,0.0312,0.0243,0.0241,0.0235,0.0202,0.0201,0.0198,0.0197,0.0196,0.0143,0.0143,0,0,0,0,0,0,0.039,0.0388,0.0374,0.0371,0.0367,0.0335,0.0332,0.0339,0.0295,0.0287,0.0313,0.031,0.0246,0.0239,0.0232,0.0226,0.0198,0.0195,0.0194,0.0143,0.0143,0.0143,0,0,0,0,0,0,0.0391,0.039,0.0376,0.0374,0.037,0.0336,0.0344,0.0338,0.0325,0.0285,0.0276,0.0304,0.0245,0.0236,0.0214,0.0222,0.0194,0.0192,0.0142,0.0143,0.0143,0.0217,0,0,0,0,0,0,0.0392,0.0392,0.0392,0.0375,0.037,0.0363,0.0344,0.0338,0.0319,0.0316,0.0274,0.0266,0.0243,0.0218,0.0211,0.0218,0.019,0.0142,0.0142,0.0143,0.0214,0.022,0.0224,0,0,0,0,0,0.0393,0.0395,0.0393,0.039,0.0375,0.0363,0.0359,0.0333,0.032,0.0318,0.0295,0.0267,0.0215,0.0217,0.0208,0.0214,0.0142,0.0142,0.0143,0.0212,0.0219,0.0224,0,0,0,0,0,0,0.0387,0.0391,0.0388,0.0387,0.0376,0.0355,0.0346,0.0332,0.0314,0.0306,0.0273,0.0264,0.0246,0.0219,0.0221,0.0199,0.0172,0.0171,0.0228,0.0233,0.0238,0.0247,0.0187,0,0,0,0,0,0.0391,0.0402,0.0394,0.039,0.0389,0.037,0.0359,0.0343,0.0325,0.0315,0.0293,0.0264,0.0245,0.023,0.0206,0.0196,0.0173,0.0192,0.0197,0.0202,0.0202,0.0197,0.0202,0.0145,0.0145,0.0145,0,0,0.0382,0.0387,0.0389,0.039,0.0381,0.0387,0.0362,0.0346,0.035,0.0308,0.0306,0.028,0.0245,0.0237,0.0226,0.0214,0.0203,0.0202,0.0207,0.0204,0.0198,0.0204,0.0209,0.0145,0.0145,0.0145,0,0,0.0377,0.0383,0.0394,0.0395,0.0386,0.0385,0.0382,0.0369,0.0362,0.0357,0.033,0.0315,0.0282,0.0268,0.0254,0.0271,0.023,0.0254,0.0288,0.0284,0.0289,0.0293,0.0262,0.0263,0.0258,0.0258,0.0258,0,0.0365,0.0388,0.0389,0.0402,0.0406,0.0389,0.0401,0.0396,0.0376,0.0379,0.0361,0.0335,0.0301,0.0302,0.0302,0.0284,0.0263,0.0272,0.0293,0.0297,0.03,0.0267,0.0267,0.0261,0.0261,0.0261,0.026,0,0.0379,0.0393,0.0398,0.0426,0.0426,0.0432,0.0433,0.0436,0.0429,0.0426,0.0424,0.0393,0.0379,0.0364,0.0334,0.0339,0.031,0.0303,0.0283,0.031,0.0273,0.0272,0.0267,0.0265,0.0264,0.0263,0,0,0.0386,0.0407,0.0415,0.0433,0.0445,0.0453,0.0466,0.0483,0.0505,0.0484,0.0514,0.0472,0.0458,0.044,0.0409,0.0396,0.039,0.0356,0.0354,0.0335,0.036,0.0309,0.0302,0.039,0.039,0.0391,0.0323,0,0.0406,0.0442,0.0445,0.0481,0.0505,0.0502,0.0523,0.053,0.0539,0.0567,0.0538,0.0548,0.0488,0.0489,0.0468,0.0421,0.0391,0.0408,0.0327,0.0324,0.0285,0.0301,0.0312,0.0251,0.0321,0.0321,0.0321,0,0.0438,0.0465,0.0502,0.0533,0.0543,0.0558,0.0606,0.0618,0.0641,0.0649,0.0652,0.0636,0.0618,0.0569,0.0495,0.0509,0.0431,0.0383,0.0379,0.0305,0.0272,0.0235,0.0245,0.0318,0.0318,0.0318,0.0319,0,0.0476,0.0509,0.0547,0.0559,0.0588,0.0603,0.0617,0.0643,0.0677,0.0707,0.074,0.0715,0.0715,0.0635,0.0525,0.0513,0.0439,0.0418,0.0291,0.0285,0.0264,0.0256,0.0351,0.0351,0.0351,0.0351,0.0352,0,0.0512,0.0541,0.0569,0.0593,0.0643,0.0642,0.0699,0.071,0.0756,0.0811,0.0784,0.0819,0.0731,0.0679,0.0563,0.0426,0.0467,0.0293,0.027,0.0287,0.0282,0.0317,0.0315,0.0349,0.0349,0.035,0.035,0,0.0532,0.0554,0.0601,0.0643,0.066,0.0693,0.0748,0.0798,0.0823,0.0899,0.0913,0.0906,0.0821,0.071,0.0582,0.0476,0.0353,0.0283,0.0293,0.0271,0.0185,0.0187,0.0142,0.014,0.0138,0.0136,0.0135,0,0.0541,0.0571,0.0638,0.0676,0.0692,0.0745,0.0792,0.0831,0.0892,0.0947,0.0992,0.0939,0.0905,0.07,0.0502,0.0297,0.0289,0.0178,0.0152,0.0185,0.0167,0.0171,0.0175,0.0148,0.0146,0.0146,0.0145,0,0.0558,0.0585,0.0622,0.0709,0.0767,0.0837,0.0901,0.0963,0.1019,0.1073,0.1113,0.1086,0.0877,0.0681,0.0406,0.0269,0.0218,0.0149,0.0207,0.0196,0.0184,0.0168,0.0173,0.0137,0.0138,0.0138,0.0139,0.0139,0.0568,0.0598,0.0661,0.0739,0.0816,0.0913,0.0973,0.105,0.1138,0.1205,0.1182,0.1129,0.0924,0.0543,0.0325,0.0099,0.0103,0.0044,0.005,0.0056,0.0066,0.0051,-0.0021,-0.0021,-0.0021,-0.0021,-0.0021,0,0.0582,0.0622,0.0691,0.0792,0.0882,0.0923,0.1042,0.1102,0.1196,0.1234,0.1243,0.1025,0.0798,0.0555,0.0203,0.0001,0.0004,-0.0052,0.0012,0.0021,0.0028,0.0039,-0.0056,-0.0056,-0.0057,-0.0057,0,0,0.0591,0.0652,0.0689,0.083,0.0908,0.1023,0.1092,0.1171,0.1217,0.1238,0.1202,0.1136,0.0851,0.0599,0.0328,0.0139,0.0127,0.0097,0.0145,0.026,0.027,0.0099,0.0126,0,0,0,0,0]}],[{"header":{"parameterUnit":"m.s-1","parameterCategory":2,"la1":30.2991,"la2":30.254,"lo1":-89.0895,"lo2":-89.0444,"dy":0.0017,"dx":0.0017,"nx":28,"ny":28,"refTime":"2025-07-27T21:00:00:Z","depth":"4","parameterNumber":2,"parameterNumberName":"U-component_of_CURRENTS"},"data":[0,0,0,0,0,0,0,0,0,0,0,0,0,0,0,0,0,0,0,0,0,0,0,0,0,0,0,0,0,0,0,0,0,0,0,0,0,0,0,0,0,0,0,0,0,0,0,0,0,0,0,0,0,0,0,0,0,0,0.0045,0.0045,0,0.0082,0.0083,0.0083,0.0144,0.0145,0.0146,0.0147,0.0203,0.0203,0.0204,0,0,0,0,0,0,0,0,0,0,0,0,0,0.0021,0.0021,0.0045,0.0045,0.0046,0.0082,0.0083,0.0083,0.0144,0.0145,0.0146,0.0147,0.0202,0.0203,0.0204,0,0,0,0,0,0,0,0,0,0,0,0,0,0.0044,0.0021,0.0045,0.0079,0.0082,0.0082,0.0083,0.0084,0.0144,0.0145,0.0146,0.0148,0.0202,0.0203,0.0204,0.0181,0,0,0.0207,0.0207,0,0,0,0,0,0,0,0,0.0042,0.0045,0.0073,0.0076,0.008,0.0108,0.0095,0.0117,0.0143,0.0122,0.0147,0.0148,0.017,0.0174,0.018,0.0184,0.0186,0.0207,0.0207,0.0208,0.0208,0,0,0,0,0,0,0,0.0041,0.0044,0.0062,0.0074,0.0078,0.009,0.0095,0.0099,0.014,0.0124,0.0128,0.0129,0.0173,0.0179,0.0182,0.0187,0.0207,0.0208,0.0208,0.0208,0.0283,0.0285,0,0,0,0,0,0,0.0031,0.0042,0.006,0.0063,0.0062,0.0089,0.0095,0.0099,0.014,0.0146,0.0127,0.0131,0.0177,0.0181,0.0184,0.0291,0.0208,0.0209,0.0209,0.0282,0.0284,0.0285,0,0,0,0,0,0,0.003,0.0032,0.0059,0.0051,0.0056,0.0088,0.0092,0.0099,0.0155,0.0141,0.0149,0.0182,0.0178,0.0183,0.023,0.0289,0.0209,0.021,0.028,0.0282,0.0284,0.042,0,0,0,0,0,0,0.003,0.0032,0.0053,0.0051,0.0055,0.0083,0.0091,0.0099,0.0149,0.0156,0.0189,0.0193,0.018,0.0229,0.0231,0.0288,0.0211,0.0278,0.0281,0.0284,0.0414,0.0426,0.0437,0,0,0,0,0,0.0029,0.0039,0.0053,0.0057,0.0076,0.0083,0.0088,0.0116,0.0151,0.0174,0.0207,0.0195,0.0248,0.0231,0.0233,0.0292,0.0277,0.028,0.0284,0.0408,0.0424,0.0437,0,0,0,0,0,0,0.0038,0.0046,0.0062,0.0076,0.0092,0.0094,0.0124,0.0145,0.019,0.022,0.0215,0.022,0.0281,0.0261,0.0243,0.0317,0.0259,0.0263,0.0353,0.0368,0.038,0.0405,0.0211,0,0,0,0,0,0.0047,0.0067,0.007,0.009,0.0104,0.0128,0.0146,0.0169,0.0194,0.022,0.0251,0.0274,0.0286,0.0309,0.0314,0.0359,0.0313,0.0394,0.0406,0.0417,0.0437,0.0403,0.0414,0.0296,0.0296,0.0296,0,0,0.0055,0.0066,0.0077,0.0096,0.0119,0.0142,0.0145,0.019,0.0233,0.0216,0.0312,0.0321,0.0304,0.0356,0.0382,0.0357,0.0424,0.0421,0.043,0.0445,0.0408,0.0419,0.0429,0.0298,0.0298,0.0297,0,0,0.0065,0.0097,0.0113,0.0134,0.0174,0.0188,0.0213,0.0256,0.0306,0.0378,0.0375,0.0422,0.0462,0.0459,0.0457,0.0533,0.0484,0.0544,0.0638,0.0606,0.0616,0.0624,0.0574,0.0577,0.0556,0.0557,0.0557,0,0.0084,0.0093,0.012,0.0143,0.0172,0.0217,0.0247,0.0294,0.0357,0.0405,0.0431,0.0507,0.0506,0.0541,0.0585,0.0564,0.0534,0.059,0.0623,0.063,0.0636,0.0583,0.0584,0.0564,0.0563,0.0562,0.0562,0,0.0087,0.0117,0.0135,0.0183,0.0222,0.0257,0.0316,0.0394,0.0476,0.0516,0.0614,0.0627,0.0673,0.0681,0.0672,0.072,0.068,0.0638,0.0591,0.0656,0.0595,0.0594,0.0574,0.0571,0.0569,0.0567,0,0,0.0139,0.0125,0.0149,0.0174,0.0251,0.0282,0.0381,0.046,0.053,0.0635,0.0714,0.0781,0.0821,0.0821,0.0814,0.0811,0.0833,0.0774,0.0769,0.0733,0.0763,0.0797,0.0798,0.0808,0.0808,0.0809,0.0701,0,0.0158,0.0134,0.0162,0.0231,0.0257,0.034,0.0419,0.0515,0.0603,0.0695,0.0759,0.0828,0.086,0.09,0.0914,0.0852,0.0839,0.0866,0.0698,0.0693,0.0723,0.0801,0.0812,0.0699,0.0699,0.0698,0.0698,0,0.0238,0.0188,0.0195,0.0255,0.0282,0.0347,0.0493,0.0569,0.0695,0.076,0.0864,0.0908,0.0979,0.0966,0.0943,0.0969,0.0897,0.0835,0.0827,0.0817,0.0728,0.0619,0.0694,0.0695,0.0695,0.0695,0.0696,0,0.0316,0.0292,0.0278,0.0295,0.0333,0.0413,0.0481,0.0615,0.0701,0.0817,0.0876,0.0956,0.1015,0.0969,0.0947,0.094,0.0871,0.0812,0.0759,0.0757,0.0692,0.0685,0.0756,0.0756,0.0756,0.0757,0.0757,0,0.04,0.0417,0.0305,0.033,0.0388,0.0439,0.0567,0.0655,0.0758,0.0852,0.0931,0.0997,0.1027,0.1024,0.0951,0.0896,0.0878,0.0803,0.0752,0.0749,0.0749,0.069,0.0684,0.0753,0.0754,0.0754,0.0755,0,0.0541,0.0454,0.0475,0.0443,0.0459,0.0535,0.0641,0.0702,0.0795,0.0913,0.0965,0.1055,0.1076,0.1058,0.0967,0.0913,0.0817,0.0772,0.0789,0.0734,0.0706,0.0708,0.0699,0.07,0.07,0.0701,0.0701,0,0.0566,0.0573,0.0567,0.057,0.0572,0.0635,0.0689,0.0771,0.0826,0.0942,0.0993,0.1069,0.1118,0.1012,0.0985,0.086,0.0827,0.0751,0.0745,0.0759,0.0709,0.071,0.0711,0.0702,0.0703,0.0703,0.0703,0,0.0609,0.0643,0.0627,0.0632,0.0678,0.0702,0.0772,0.0811,0.09,0.0971,0.1024,0.1035,0.1052,0.1023,0.0964,0.0854,0.0802,0.0757,0.0754,0.0747,0.0763,0.0713,0.0713,0.0705,0.0705,0.0705,0.0705,0,0.0643,0.0652,0.0642,0.0666,0.0693,0.0719,0.0773,0.0794,0.0863,0.0977,0.0994,0.1021,0.1078,0.1017,0.0943,0.0894,0.0849,0.0763,0.0758,0.0755,0.083,0.0862,0.0817,0,0,0,0,0,0.0621,0.0617,0.0635,0.0648,0.0675,0.07,0.0772,0.0806,0.0891,0.0927,0.0961,0.0976,0.0949,0.0947,0.0899,0.0931,0.0829,0.0866,0.0722,0.0718,0.0716,0.0802,0,0,0,0,0,0,0.0598,0.0604,0.0618,0.0594,0.0603,0.063,0.0681,0.075,0.0767,0.0861,0.0854,0.0917,0.0897,0.0974,0.0883,0.0879,0.0765,0.0887,0.0884,0.072,0.0717,0.0715,0.0803,0,0,0,0,0]},{"header":{"parameterUnit":"m.s-1","parameterCategory":2,"la1":30.2991,"la2":30.254,"lo1":-89.0895,"lo2":-89.0444,"dy":0.0017,"dx":0.0017,"nx":28,"ny":28,"refTime":"2025-07-27T21:00:00:Z","depth":"4","parameterNumber":3,"parameterNumberName":"V-component_of_CURRENTS"},"data":[0,0,0,0,0,0,0,0,0,0,0,0,0,0,0,0,0,0,0,0,0,0,0,0,0,0,0,0,0,0,0,0,0,0,0,0,0,0,0,0,0,0,0,0,0,0,0,0,0,0,0,0,0,0,0,0,0,0,0.0389,0.0389,0,0.0373,0.0373,0.0372,0.0362,0.0363,0.0363,0.0363,0.0297,0.0295,0.0293,0,0,0,0,0,0,0,0,0,0,0,0,0,0.0375,0.0375,0.0389,0.0389,0.0389,0.0373,0.0373,0.0372,0.0362,0.0363,0.0363,0.0363,0.0298,0.0295,0.0293,0,0,0,0,0,0,0,0,0,0,0,0,0,0.0369,0.0375,0.0389,0.0385,0.0385,0.0373,0.0373,0.0372,0.0362,0.0363,0.0363,0.0363,0.0298,0.0296,0.0293,0.0267,0,0,0.0283,0.0282,0,0,0,0,0,0,0,0,0.037,0.0369,0.0385,0.0385,0.0385,0.0373,0.0344,0.0335,0.0362,0.0367,0.0363,0.0364,0.032,0.0315,0.0307,0.0264,0.0261,0.0283,0.0281,0.028,0.0279,0,0,0,0,0,0,0,0.037,0.037,0.0379,0.0386,0.0385,0.0372,0.0371,0.0342,0.0338,0.0367,0.0367,0.037,0.0319,0.031,0.0305,0.026,0.0283,0.0281,0.0279,0.0278,0.0123,0.0121,0,0,0,0,0,0,0.038,0.037,0.038,0.0379,0.0382,0.0372,0.0371,0.0374,0.0339,0.0336,0.037,0.037,0.0315,0.0309,0.0303,0.0234,0.028,0.0277,0.0276,0.0125,0.0122,0.012,0,0,0,0,0,0,0.038,0.0381,0.0381,0.0377,0.0377,0.0373,0.0375,0.0373,0.0364,0.0343,0.0338,0.0362,0.0315,0.0307,0.0261,0.0232,0.0276,0.0273,0.0128,0.0124,0.0121,0.0118,0,0,0,0,0,0,0.0379,0.0381,0.039,0.0378,0.0377,0.0371,0.0375,0.0373,0.0367,0.0366,0.0335,0.0329,0.0315,0.0266,0.0258,0.0229,0.0271,0.0131,0.0126,0.0122,0.0121,0.0115,0.011,0,0,0,0,0,0.0379,0.0385,0.0391,0.0392,0.0389,0.0371,0.0369,0.0365,0.0366,0.0358,0.0328,0.033,0.0232,0.0262,0.0254,0.0223,0.0133,0.0128,0.0123,0.0124,0.0116,0.011,0,0,0,0,0,0,0.038,0.0385,0.039,0.0397,0.0386,0.0371,0.0371,0.0362,0.0334,0.0332,0.0309,0.03,0.0244,0.0229,0.0262,0.016,0.0179,0.0172,0.0182,0.0175,0.017,0.0204,0.0268,0,0,0,0,0,0.0387,0.0397,0.0389,0.0396,0.0392,0.0381,0.0376,0.0368,0.0343,0.0332,0.0303,0.0262,0.0214,0.0195,0.0152,0.0107,0.0093,0.0076,0.007,0.0066,0.0084,0.001,0.0,0.0103,0.0103,0.0103,0,0,0.0393,0.0396,0.0403,0.0398,0.0393,0.038,0.0377,0.0366,0.0349,0.0327,0.0287,0.0242,0.0195,0.0138,0.0111,0.0125,0.0027,0.0059,0.0056,0.0078,0.0003,-0.0006,-0.0015,0.0099,0.01,0.0101,0,0,0.0403,0.0408,0.0418,0.0407,0.04,0.0383,0.0379,0.0352,0.0335,0.0291,0.0258,0.0199,0.014,0.0093,0.0065,0.0,-0.0004,-0.0021,-0.0013,-0.0087,-0.0095,-0.0102,-0.0125,-0.0135,-0.0019,-0.0019,-0.0019,0,0.0407,0.0422,0.0415,0.0414,0.0412,0.0383,0.0381,0.035,0.0307,0.0288,0.0277,0.016,0.0117,0.0044,0.0019,-0.001,-0.0032,0.0023,-0.0091,-0.0098,-0.0106,-0.0128,-0.0138,-0.0019,-0.0019,-0.0019,-0.0019,0,0.0417,0.0431,0.0431,0.0424,0.0413,0.0404,0.0368,0.0341,0.0312,0.0277,0.0199,0.0129,0.0075,0.0025,0.0008,-0.0074,-0.0065,-0.0091,-0.0062,-0.0116,-0.0136,-0.0147,-0.0021,-0.002,-0.002,-0.002,0,0,0.0405,0.0438,0.0435,0.0453,0.0421,0.0415,0.0378,0.034,0.0324,0.0246,0.0212,0.0101,0.0074,0.0039,-0.0011,-0.0084,-0.0162,-0.0099,-0.0103,-0.0099,-0.0287,-0.0213,-0.0217,-0.0207,-0.0209,-0.0211,-0.0276,0,0.0412,0.0432,0.0443,0.0454,0.0454,0.0434,0.0413,0.037,0.0318,0.0269,0.0174,0.0125,0.0076,0.006,-0.0029,-0.014,-0.0191,-0.0139,-0.0253,-0.0256,-0.0166,-0.0228,-0.0218,-0.0284,-0.0286,-0.0288,-0.0289,0,0.0399,0.0421,0.0447,0.0488,0.049,0.0497,0.0472,0.0457,0.0373,0.0337,0.0259,0.0194,0.0081,0.0054,-0.0141,-0.0103,-0.0174,-0.026,-0.0265,-0.0194,-0.0201,-0.0226,-0.0308,-0.0307,-0.0305,-0.0304,-0.0303,0,0.0377,0.0419,0.0453,0.0458,0.0487,0.0513,0.053,0.0474,0.0463,0.0396,0.0366,0.0228,0.0177,0.0024,-0.0125,-0.0136,-0.0328,-0.0369,-0.0362,-0.0356,-0.0397,-0.0388,-0.0474,-0.0474,-0.0474,-0.0474,-0.0474,0,0.0361,0.039,0.0461,0.0477,0.0523,0.0548,0.0571,0.0566,0.0537,0.0511,0.0425,0.0361,0.0166,0.0036,-0.0112,-0.0256,-0.031,-0.0355,-0.0377,-0.0397,-0.0388,-0.0403,-0.0394,-0.0476,-0.0476,-0.0475,-0.0475,0,0.0335,0.0373,0.0421,0.0491,0.0517,0.0557,0.0621,0.0628,0.0618,0.0581,0.0574,0.045,0.029,0.0112,-0.012,-0.0206,-0.0372,-0.0389,-0.0353,-0.0372,-0.0354,-0.0344,-0.0418,-0.0416,-0.0414,-0.0413,-0.0412,0,0.0334,0.0353,0.0433,0.0468,0.0518,0.0579,0.0614,0.0651,0.0659,0.0613,0.0594,0.0479,0.0373,0.0107,-0.0077,-0.0303,-0.0324,-0.0368,-0.0406,-0.0338,-0.0353,-0.0346,-0.0339,-0.0409,-0.0409,-0.0408,-0.0408,0,0.0336,0.0363,0.0407,0.047,0.0532,0.0588,0.0658,0.0664,0.0695,0.0673,0.0606,0.0486,0.0331,0.0119,-0.0001,-0.0187,-0.0342,-0.0353,-0.0358,-0.0395,-0.0329,-0.0343,-0.0339,-0.0403,-0.0403,-0.0404,-0.0404,0,0.0344,0.0366,0.0421,0.0481,0.0543,0.0602,0.0631,0.0665,0.0681,0.0658,0.0621,0.0461,0.0373,0.0181,0.0021,-0.0101,-0.0158,-0.0198,-0.0213,-0.0221,-0.0142,-0.0029,-0.0028,0,0,0,0,0,0.0353,0.0381,0.0432,0.0499,0.0558,0.0605,0.0662,0.0686,0.0698,0.0665,0.0659,0.0516,0.0315,0.0208,0.0093,0.0027,-0.0187,-0.0109,-0.0242,-0.0372,-0.0378,-0.0313,0,0,0,0,0,0,0.0358,0.0403,0.0427,0.0504,0.0555,0.0629,0.0668,0.0681,0.0668,0.0656,0.054,0.0508,0.0294,0.0377,0.0093,0.0055,-0.0038,-0.0204,-0.0206,-0.0368,-0.0374,-0.0379,-0.0314,0,0,0,0,0]}]]